User: anonymous   Login
Location: Unspecified
(51.0950°N, 12.9690°E)
Time: 16:58:09
(UTC+00:00)
Language:

SL-08 R/B - Orbit

View from above orbital plane
View from above orbital plane
View from above satellite
View from above satellite

Ground track
Ground track

The orbit data is extracted from the following two-line orbital elements,

1 27561U 02054C   22021.87912620  .00000147  00000-0  44211-4 0  9992
2 27561  98.4841 187.0828 0046750  38.6931 321.7600 14.55972648 16594
Epoch (UTC): 21 January 2022 21:05:56
Eccentricity: 0.0046750
inclination: 98.4841°
perigee height: 673 km
apogee height: 739 km
right ascension of ascending node: 187.0828°
argument of perigee: 38.6931°
revolutions per day: 14.55972648
mean anomaly at epoch: 321.7600°
orbit number at epoch: 1659

The dashed part of the orbit path shows where the satellite is in the earth's shadow,  

DLR